Tracking 25963 objects as of 12-Aug-2022
HD Live streaming from Space Station
objects crossing your sky now

ONEWEB-0431

Track ONEWEB-0431 now!
10-day predictions
ONEWEB-0431 is classified as:


NORAD ID: 51630
Int'l Code: 2022-012J
Perigee: 1,227.0 km
Apogee: 1,230.7 km
Inclination: 87.9 °
Period: 109.9 minutes
Semi major axis: 7599 km
RCS: Unknown
Launch date: February 10, 2022
Source: United Kingdom (UK)
Launch site: FRENCH GUIANA (FRGUI)
aabbcc
Your satellite tracking list
Your tracking list is empty




NASA's NSSDC Master Catalog

Two Line Element Set (TLE):
1 51630U 22012J   22224.00001157 -.00009528  00000-0 -27357-1 0  9999
2 51630  87.8862 315.6411 0002479  77.0028 348.7934 13.10375579 26606
Source of the keplerian elements: AFSPC